Location: Maddington
(51.2000°N, 1.9167°W)
Time: 13:55:20
(UTC+00:00)

SJ-6B - Pass Details

Date: 18 September 2020
Orbit: 511 x 580 km, 97.6° (Epoch: 25 October)

Event Time Altitude Azimuth Distance (km) Brightness Sun altitude
Exits shadow 19:21:30 11° 144° (SE) 1,692 4.8 -11.2°
Maximum altitude 19:24:59 48° 70° (ENE) 686 3.0 -11.7°
Drops below altitude 10° 19:28:38 10° 356° (N) 1,759 5.7 -12.3°
Sets 19:30:48 0° 351° (N) 2,660 6.7 -12.6°
